Regional Weather Roundup
Issued by NWS Northern Indiana

Home | Current Version | Previous Version | Text Only | Print | Product List | Glossary On
Versions: 1 2 3 4 5 6 7 8 9 10 11 12 13 14 15 16 17 18 19 20 21 22 23 24 25 26 27 28 29 30 31 32 33 34 35 36 37 38 39 40 41 42 43 44 45 46 47 48 49 50
000
ASUS43 KIWX 072210
RWRIWX

KIWX WEATHER ROUNDUP
NATIONAL WEATHER SERVICE NORTHERN INDIANA
600 PM EDT TUE JUL 07 2015

NOTE: "FAIR" INDICATES FEW OR NO CLOUDS BELOW 12,000 FEET WITH NO
SIGNIFICANT WEATHER AND/OR OBSTRUCTIONS TO VISIBILITY.

* THESE STATIONS ARE NOT UNDER NWS QUALITY CONTROL. THEY ALSO MAY NOT
  REPORT WEATHER SUCH AS PRECIPITATION OR FOG.

INZ001>027-072300-
NORTHERN INDIANA

CITY           SKY/WX    TMP DP  RH WIND       PRES   REMARKS
GARY*          MOSUNNY   64  50  59 N14G30    30.07R
VALPARAISO     SUNNY     65  48  54 N14G23    30.04R
MICHIGAN CITY* SUNNY     63  46  55 N14G29    30.05S
LAPORTE*       SUNNY     65  49  55 N22G30    30.04S
KNOX*          MOSUNNY   64  46  52 N22G28    30.01S
SOUTH BEND     SUNNY     66  50  56 N20G26    30.01S
ELKHART*       SUNNY     66  50  55 NW7G17    30.00R
GOSHEN         SUNNY     68  55  63 NW10      29.98R
MONTICELLO*    CLOUDY    67  54  62 N17G23    30.00R
LOGANSPORT*    CLOUDY    68  48  49 N14G20    29.99S
ROCHESTER*     PTSUNNY   70  54  56 NW15      29.99R
WARSAW*          N/A     70  55  60 N10G20    29.97S
ANGOLA*        CLOUDY    70  63  78 N6        29.95S
FORT WAYNE     CLOUDY    70  62  76 N15       29.95S
HUNTINGTON*    CLOUDY    69  61  76 N8        29.95S
PERU/GRISSOM   CLOUDY    68  56  65 N15G21    29.97R
MARION*        CLOUDY    66  62  86 N6        29.97R

$$
INZ028>050-072300-
CENTRAL INDIANA

CITY           SKY/WX    TMP DP  RH WIND       PRES   REMARKS
LAFAYETTE      CLOUDY    68  54  60 N10       30.00R
KOKOMO*        CLOUDY    70  59  68 N15       29.97R
MUNCIE*        LGT RAIN  69  66  90 N10       29.95R
INDIANAPOLIS   LGT RAIN  66  62  87 NW17      29.97R

$$
MIZ043>046-050>051-056>058-064>065-071>073-077>080-072300-
SOUTHWEST LOWER MICHIGAN

CITY           SKY/WX    TMP DP  RH WIND       PRES   REMARKS
BATTLE CREEK   CLOUDY    70  58  65 N10       29.98R
BENTON HARBOR  SUNNY     63  48  58 VRB7G24   30.02S
COLDWATER*     CLOUDY    68  58  68 NW10      29.96S
HILLSDALE*     CLOUDY    69  63  80 N9        29.96S
HOLLAND        SUNNY     67  49  52 NW10G20   30.01R
GRAND RAPIDS   PTSUNNY   71  54  54 VRB3      29.99R
KALAMAZOO      CLOUDY    71  57  61 NW9       29.97S
STURGIS*       CLOUDY    68  61  77 NW8       29.96S
THREE RIVERS*  FAIR      69  57  64 W8G16     29.97S

$$
OHZ001>008-015>018-024>025-072300-
NORTHWEST OHIO

CITY           SKY/WX    TMP DP  RH WIND       PRES   REMARKS
DEFIANCE       CLOUDY    70  63  78 N13       29.94R
FINDLAY        CLOUDY    74  70  87 W8        29.90S
TOLEDO EXPRESS CLOUDY    67  64  90 N12       29.93R
TOLEDO METCALF CLOUDY    69  64  84 N13       29.93R
LIMA           CLOUDY    73  71  93 W5        29.92S

$$
AND FOR LAKE MICHIGAN COASTAL AND OPEN LAKE BUOY OBSERVATIONS

STATION/POSITION TEMP    WIND        PRES    VSBY  WAVE
                 AIR SEA DIR/SP/G                  HT/PER
                 (F)     (DEG/KT/KT) (MB)    (MI)  (FT/S)
CALUMET HARBOR    62     360/ 11/ 18   N/A
MICHIGAN CITY     61     350/ 24/ 27   N/A
BURNS HARBOR      62      30/ 21/ 24 1017.6S
SAINT JOSEPH      63     340/ 19/ 28 1017.9R
4 MI NW BRIDGMAN  61 63   40/ 21/ 27   N/A           9/ 2
MICHIGAN CITY     62 65   20/ 19/ 25   N/A           8/ 7

$$
&&


USA.gov is the U.S. government's official web portal to all federal, state and local government web resources and services.